KS4XQ Weather Reports


Display with metric or nautical units.
time (UTC)temp
F
wind
direction
speed
MPH
gust
MPH
rain 1hr
in
rain 24hr
in
rain mn
in
humidity
%
barometer
mb
20260905154606 93 219 1.0 3.0 0.00 0.00 0.00 63 1014.4
20260905154406 93 256 0.0 3.0 0.00 0.00 0.00 64 1014.4
20260905154006 93 190 1.0 3.0 0.00 0.00 0.00 65 1014.4
20260905153606 92 227 1.0 3.0 0.00 0.00 0.00 65 1014.4
20260905153406 92 195 1.0 3.0 0.00 0.00 0.00 64 1014.3
20260905153210 92 194 1.0 3.0 0.00 0.00 0.00 65 1014.4
20260905153006 91 225 1.0 3.0 0.00 0.00 0.00 66 1014.4
20260905152606 91 317 1.0 3.0 0.00 0.00 0.00 67 1014.4
20260905152406 91 230 1.0 3.0 0.00 0.00 0.00 69 1014.4
20260905152006 90 284 1.0 3.0 0.00 0.00 0.00 68 1014.4
20260905151806 90 277 1.0 3.0 0.00 0.00 0.00 68 1014.5
20260905151606 89 282 1.0 3.0 0.00 0.00 0.00 71 1014.6
20260905151406 89 215 1.0 3.0 0.00 0.00 0.00 72 1014.5
20260905151209 89 216 1.0 3.0 0.00 0.00 0.00 72 1014.6
20260905151006 89 184 1.0 3.0 0.00 0.00 0.00 70 1014.5
20260905150806 88 274 1.0 3.0 0.00 0.00 0.00 72 1014.6
20260905150606 88 286 1.0 3.0 0.00 0.00 0.00 73 1014.6
20260905150406 88 240 1.0 2.0 0.00 0.00 0.00 75 1014.6
20260905150209 87 198 1.0 3.0 0.00 0.00 0.00 75 1014.7
20260905145806 87 225 1.0 3.0 0.00 0.00 0.00 77 1014.7
20260905145606 86 291 1.0 3.0 0.00 0.00 0.00 76 1014.7
20260905145406 86 265 1.0 3.0 0.00 0.00 0.00 77 1014.7
20260905145209 86 196 1.0 4.0 0.00 0.00 0.00 77 1014.6
20260905145006 86 198 1.0 4.0 0.00 0.00 0.00 79 1014.6
20260905144806 85 277 1.0 4.0 0.00 0.00 0.00 79 1014.6
20260905144606 85 313 1.0 4.0 0.00 0.00 0.00 80 1014.6
20260905144209 85 292 0.0 2.0 0.00 0.00 0.00 80 1014.6
20260905144006 84 290 0.0 2.0 0.00 0.00 0.00 81 1014.6
20260905143606 84 9 1.0 4.0 0.00 0.00 0.00 80 1014.6
20260905143406 83 9 1.0 4.0 0.00 0.00 0.00 82 1014.6
20260905143006 83 280 1.0 4.0 0.00 0.00 0.00 82 1014.7
20260905142606 83 284 1.0 3.0 0.00 0.00 0.00 83 1014.7
20260905142209 82 284 1.0 4.0 0.00 0.00 0.00 85 1014.8
20260905142006 81 284 1.0 4.0 0.00 0.00 0.00 86 1014.8
20260905141806 81 280 1.0 4.0 0.00 0.00 0.00 85 1014.7
20260905141605 81 281 2.0 4.0 0.00 0.00 0.00 86 1014.8
20260905141406 81 338 2.0 6.0 0.00 0.00 0.00 86 1014.9
20260905141209 80 338 2.0 6.0 0.00 0.00 0.00 87 1014.9
20260905141006 80 260 1.0 6.0 0.00 0.00 0.00 88 1014.9
20260905140606 80 280 0.0 5.0 0.00 0.00 0.00 88 1014.9
20260905140406 80 286 0.0 0.0 0.00 0.00 0.00 89 1014.9
20260905140210 80 286 0.0 0.0 0.00 0.00 0.00 89 1015.0
20260905140008 80 286 0.0 0.0 0.00 0.00 0.00 89 1015.0
20260905135805 79 271 0.0 0.0 0.00 0.00 0.00 90 1014.9
20260905135405 79 294 0.0 0.0 0.00 0.00 0.00 90 1015.0
20260905135207 79 294 0.0 0.0 0.00 0.00 0.00 91 1015.1
20260905134810 78 302 0.0 0.0 0.00 0.00 0.00 92 1015.0
20260905134606 78 29 0.0 0.0 0.00 0.00 0.00 92 1015.1
20260905134406 77 29 0.0 0.0 0.00 0.00 0.00 92 1015.0
20260905134206 77 272 0.0 0.0 0.00 0.00 0.00 94 1015.0
20260905133807 77 272 0.0 0.0 0.00 0.00 0.00 94 1015.0
20260905133605 76 272 0.0 0.0 0.00 0.00 0.00 95 1015.1
20260905133206 76 272 0.0 0.0 0.00 0.00 0.00 95 1015.1
20260905132806 76 272 0.0 0.0 0.00 0.00 0.00 95 1015.0
20260905132607 76 272 0.0 0.0 0.00 0.00 0.00 96 1015.1
20260905132411 75 272 0.0 0.0 0.00 0.00 0.00 96 1015.2
20260905132207 75 272 0.0 0.0 0.00 0.00 0.00 96 1015.0
20260905132006 75 272 0.0 0.0 0.00 0.00 0.00 96 1015.0
20260905131807 75 272 0.0 0.0 0.00 0.00 0.00 96 1015.2
20260905131606 75 272 0.0 0.0 0.00 0.00 0.00 97 1015.2
20260905131413 75 272 0.0 0.0 0.00 0.00 0.00 96 1015.3
20260905131206 74 272 0.0 0.0 0.00 0.00 0.00 97 1015.2
20260905130805 74 272 0.0 0.0 0.00 0.00 0.00 96 1015.2
20260905130606 74 272 0.0 0.0 0.00 0.00 0.00 95 1015.2
20260905130407 74 272 0.0 0.0 0.00 0.00 0.00 95 1015.2
20260905130205 73 272 0.0 0.0 0.00 0.00 0.00 95 1015.1
20260905130011 73 272 0.0 0.0 0.00 0.00 0.00 96 1015.1
20260905125806 73 272 0.0 0.0 0.00 0.00 0.00 95 1015.0
20260905125407 73 272 0.0 0.0 0.00 0.00 0.00 95 1015.1
20260905125206 73 272 0.0 0.0 0.00 0.00 0.00 95 1015.1
20260905125008 73 272 0.0 0.0 0.00 0.00 0.00 95 1015.1
20260905124806 73 272 0.0 0.0 0.00 0.00 0.00 95 1015.1
20260905124407 73 272 0.0 0.0 0.00 0.00 0.00 95 1015.0
20260905124008 73 272 0.0 0.0 0.00 0.00 0.00 95 1014.9
20260905123806 73 272 0.0 0.0 0.00 0.00 0.00 95 1014.9
20260905123407 72 272 0.0 0.0 0.00 0.00 0.00 95 1014.9
20260905123207 72 272 0.0 0.0 0.00 0.00 0.00 95 1014.9
20260905123008 72 272 0.0 0.0 0.00 0.00 0.00 96 1014.8
20260905122806 72 272 0.0 0.0 0.00 0.00 0.00 96 1014.9
20260905122606 72 272 0.0 0.0 0.00 0.00 0.00 95 1014.9
20260905122406 72 272 0.0 0.0 0.00 0.00 0.00 95 1014.8
20260905122007 71 236 0.0 0.0 0.00 0.00 0.00 94 1014.8
20260905121806 71 236 0.0 0.0 0.00 0.00 0.00 94 1014.8
20260905121606 71 236 0.0 0.0 0.00 0.00 0.00 94 1014.9
20260905121407 71 236 0.0 0.0 0.00 0.00 0.00 94 1014.8
20260905121206 71 236 0.0 0.0 0.00 0.00 0.00 94 1014.8
20260905121008 71 236 0.0 0.0 0.00 0.00 0.00 94 1014.8
20260905120806 71 236 0.0 0.0 0.00 0.00 0.00 93 1014.8
20260905120606 71 236 0.0 0.0 0.00 0.00 0.00 93 1014.7
20260905120407 71 236 0.0 0.0 0.00 0.00 0.00 93 1014.7
20260905115805 71 236 0.0 0.0 0.00 0.00 0.00 93 1014.7
20260905115605 71 236 0.0 0.0 0.00 0.00 0.00 93 1014.7
20260905115405 71 236 0.0 0.0 0.00 0.00 0.00 93 1014.7
20260905115205 71 236 0.0 0.0 0.00 0.00 0.00 93 1014.6
20260905114805 71 236 0.0 0.0 0.00 0.00 0.00 94 1014.6
20260905114607 71 236 0.0 0.0 0.00 0.00 0.00 93 1014.4
20260905114404 71 236 0.0 0.0 0.00 0.00 0.00 93 1014.6
20260905114204 71 236 0.0 0.0 0.00 0.00 0.00 93 1014.5
20260905114005 71 236 0.0 0.0 0.00 0.00 0.00 93 1014.5
20260905113805 71 236 0.0 0.0 0.00 0.00 0.00 93 1014.5
20260905113608 71 236 0.0 0.0 0.00 0.00 0.00 93 1014.5
20260905113405 71 236 0.0 0.0 0.00 0.00 0.00 93 1014.4
20260905113208 71 236 0.0 0.0 0.00 0.00 0.00 92 1014.5
20260905113004 71 236 0.0 0.0 0.00 0.00 0.00 93 1014.5
20260905112805 71 236 0.0 0.0 0.00 0.00 0.00 93 1014.4
20260905112605 71 236 0.0 0.0 0.00 0.00 0.00 93 1014.4
20260905112207 71 236 0.0 0.0 0.00 0.00 0.00 93 1014.3
20260905112005 71 236 0.0 0.0 0.00 0.00 0.00 93 1014.3
20260905111805 71 236 0.0 0.0 0.00 0.00 0.00 93 1014.3
20260905111605 71 236 0.0 0.0 0.00 0.00 0.00 92 1014.3
20260905111206 71 236 0.0 0.0 0.00 0.00 0.00 92 1014.4
20260905110808 71 236 0.0 0.0 0.00 0.00 0.00 92 1014.3
20260905110405 71 236 0.0 0.0 0.00 0.00 0.00 92 1014.3
20260905110205 71 236 0.0 0.0 0.00 0.00 0.00 92 1014.3
20260905105807 71 236 0.0 0.0 0.00 0.00 0.00 93 1014.3
20260905105605 71 236 0.0 0.0 0.00 0.00 0.00 93 1014.2
20260905105405 71 236 0.0 0.0 0.00 0.00 0.00 93 1014.2
20260905105205 71 236 0.0 0.0 0.00 0.00 0.00 92 1014.2
20260905105005 71 236 0.0 0.0 0.00 0.00 0.00 92 1014.2
20260905104405 71 236 0.0 0.0 0.00 0.00 0.00 93 1014.2
20260905104205 71 236 0.0 0.0 0.00 0.00 0.00 92 1014.2
20260905104004 71 236 0.0 0.0 0.00 0.00 0.00 92 1014.2
20260905103808 71 236 0.0 0.0 0.00 0.00 0.00 92 1014.1
20260905103407 71 236 0.0 0.0 0.00 0.00 0.00 92 1014.0
20260905103205 71 236 0.0 0.0 0.00 0.00 0.00 92 1014.0
20260905103004 71 236 0.0 0.0 0.00 0.00 0.00 92 1013.9
20260905102605 71 236 0.0 0.0 0.00 0.00 0.00 92 1013.9
20260905102407 71 236 0.0 0.0 0.00 0.00 0.00 92 1013.9
20260905102205 72 236 0.0 0.0 0.00 0.00 0.00 92 1013.8
20260905102005 72 236 0.0 0.0 0.00 0.00 0.00 92 1013.8
20260905101806 72 236 0.0 0.0 0.00 0.00 0.00 92 1013.9
20260905101408 72 236 0.0 0.0 0.00 0.00 0.00 92 1013.8
20260905101005 72 236 0.0 0.0 0.00 0.00 0.00 92 1013.7
20260905100807 72 236 0.0 0.0 0.00 0.00 0.00 92 1013.7
20260905100605 72 236 0.0 0.0 0.00 0.00 0.00 93 1013.7
20260905100407 72 236 0.0 0.0 0.00 0.00 0.00 93 1013.6
20260905100204 72 236 0.0 0.0 0.00 0.00 0.00 93 1013.7
20260905100009 72 236 0.0 0.0 0.00 0.00 0.00 92 1013.6
20260905095806 72 236 0.0 0.0 0.00 0.00 0.00 92 1013.6
20260905095605 72 236 0.0 0.0 0.00 0.00 0.00 92 1013.6
20260905095407 72 236 0.0 0.0 0.00 0.00 0.00 92 1013.7
20260905095205 72 236 0.0 0.0 0.00 0.00 0.00 91 1013.6
20260905095005 72 236 0.0 0.0 0.00 0.00 0.00 92 1013.5
20260905094807 72 236 0.0 0.0 0.00 0.00 0.00 92 1013.6
20260905094409 72 236 0.0 0.0 0.00 0.00 0.00 92 1013.6
20260905094205 72 236 0.0 0.0 0.00 0.00 0.00 91 1013.6
20260905094005 72 236 0.0 0.0 0.00 0.00 0.00 91 1013.6
20260905093805 72 236 0.0 0.0 0.00 0.00 0.00 91 1013.6
20260905093605 72 236 0.0 0.0 0.00 0.00 0.00 91 1013.6
20260905093007 72 236 0.0 0.0 0.00 0.00 0.00 91 1013.7
20260905092805 72 236 0.0 0.0 0.00 0.00 0.00 91 1013.7
20260905092605 72 236 0.0 0.0 0.00 0.00 0.00 91 1013.7
20260905092406 72 236 0.0 0.0 0.00 0.00 0.00 91 1013.6
20260905092206 72 236 0.0 0.0 0.00 0.00 0.00 90 1013.7
20260905092007 72 236 0.0 0.0 0.00 0.00 0.00 90 1013.9
20260905091805 72 236 0.0 0.0 0.00 0.00 0.00 90 1013.8
20260905091605 72 236 0.0 0.0 0.00 0.00 0.00 90 1013.9
20260905091406 72 236 0.0 0.0 0.00 0.00 0.00 90 1013.7
20260905091205 72 236 0.0 0.0 0.00 0.00 0.00 90 1013.7
20260905091007 72 236 0.0 0.0 0.00 0.00 0.00 90 1013.7
20260905090805 72 236 0.0 0.0 0.00 0.00 0.00 91 1013.8
20260905090406 72 236 0.0 0.0 0.00 0.00 0.00 91 1013.7
20260905090205 72 236 0.0 0.0 0.00 0.00 0.00 91 1013.7
20260905090010 72 236 0.0 0.0 0.00 0.00 0.00 91 1013.7
20260905085805 72 236 0.0 0.0 0.00 0.00 0.00 91 1013.7
20260905085605 72 236 0.0 0.0 0.00 0.00 0.00 91 1013.7
20260905085406 72 236 0.0 0.0 0.00 0.00 0.00 91 1013.8
20260905085007 72 236 0.0 0.0 0.00 0.00 0.00 91 1013.8
20260905084805 72 236 0.0 0.0 0.00 0.00 0.00 91 1013.8
20260905084606 72 236 0.0 0.0 0.00 0.00 0.00 91 1013.9
20260905084406 72 236 0.0 0.0 0.00 0.00 0.00 91 1013.9
20260905084205 72 236 0.0 0.0 0.00 0.00 0.00 91 1013.9
20260905083805 72 236 0.0 0.0 0.00 0.00 0.00 91 1013.9
20260905083605 72 236 0.0 0.0 0.00 0.00 0.00 91 1013.9
20260905083406 72 236 0.0 0.0 0.00 0.00 0.00 91 1013.9
20260905083205 72 236 0.0 0.0 0.00 0.00 0.00 91 1014.0
20260905083007 72 236 0.0 0.0 0.00 0.00 0.00 91 1014.0
20260905082805 72 236 0.0 0.0 0.00 0.00 0.00 91 1014.0
20260905082407 73 236 0.0 0.0 0.00 0.00 0.00 90 1013.9
20260905082206 73 236 0.0 0.0 0.00 0.00 0.00 91 1014.0
20260905082009 73 236 0.0 0.0 0.00 0.00 0.00 91 1014.1
20260905081605 73 236 0.0 0.0 0.00 0.00 0.00 91 1014.1
20260905081406 73 236 0.0 0.0 0.00 0.00 0.00 91 1014.1
20260905081205 73 236 0.0 0.0 0.00 0.00 0.00 91 1014.1
20260905081007 73 236 0.0 0.0 0.00 0.00 0.00 91 1014.1
20260905080805 73 236 0.0 0.0 0.00 0.00 0.00 90 1014.1
20260905080605 73 236 0.0 0.0 0.00 0.00 0.00 90 1014.1
20260905080406 73 236 0.0 0.0 0.00 0.00 0.00 90 1014.1
20260905080206 73 236 0.0 0.0 0.00 0.00 0.00 90 1014.2
20260905080010 73 236 0.0 0.0 0.00 0.00 0.00 90 1014.2
20260905075805 73 236 0.0 0.0 0.00 0.00 0.00 90 1014.2
20260905075605 73 236 0.0 0.0 0.00 0.00 0.00 90 1014.2
20260905075408 73 236 0.0 0.0 0.00 0.00 0.00 90 1014.2
20260905075005 73 236 0.0 0.0 0.00 0.00 0.00 90 1014.2
20260905074805 73 236 0.0 0.0 0.00 0.00 0.00 90 1014.2
20260905074605 73 236 0.0 0.0 0.00 0.00 0.00 90 1014.2
20260905074406 73 236 0.0 0.0 0.00 0.00 0.00 89 1014.3
20260905074007 73 236 0.0 0.0 0.00 0.00 0.00 89 1014.3
20260905073805 73 236 0.0 0.0 0.00 0.00 0.00 89 1014.3
20260905073606 73 236 0.0 0.0 0.00 0.00 0.00 89 1014.3
20260905073407 73 236 0.0 0.0 0.00 0.00 0.00 88 1014.2
20260905073205 73 236 0.0 0.0 0.00 0.00 0.00 88 1014.2
20260905073007 73 236 0.0 0.0 0.00 0.00 0.00 88 1014.1
20260905072805 73 236 0.0 0.0 0.00 0.00 0.00 89 1014.1
20260905072606 73 236 0.0 0.0 0.00 0.00 0.00 88 1014.2
20260905072407 73 236 0.0 0.0 0.00 0.00 0.00 88 1014.2
20260905072007 74 236 0.0 0.0 0.00 0.00 0.00 88 1014.2
20260905071805 74 236 0.0 0.0 0.00 0.00 0.00 88 1014.1
20260905071605 74 236 0.0 0.0 0.00 0.00 0.00 88 1014.1
20260905071406 74 236 0.0 0.0 0.00 0.00 0.00 88 1014.2
20260905071205 74 236 0.0 0.0 0.00 0.00 0.00 88 1014.2
20260905071007 74 236 0.0 0.0 0.00 0.00 0.00 88 1014.2
20260905070805 74 236 0.0 0.0 0.00 0.00 0.00 88 1014.1
20260905070605 74 236 0.0 0.0 0.00 0.00 0.00 88 1014.1
20260905070405 74 236 0.0 0.0 0.00 0.00 0.00 88 1014.1
20260905070008 74 236 0.0 0.0 0.00 0.00 0.00 88 1014.2
20260905065806 74 236 0.0 0.0 0.00 0.00 0.00 88 1014.2
20260905065605 74 236 0.0 1.0 0.00 0.00 0.00 88 1014.2
20260905065408 74 236 0.0 1.0 0.00 0.00 0.00 88 1014.3
20260905065210 74 236 0.0 1.0 0.00 0.00 0.00 88 1014.2
20260905064804 74 236 0.0 1.0 0.00 0.00 0.00 89 1014.3
20260905064605 74 236 0.0 0.0 0.00 0.00 0.00 88 1014.4
20260905064406 74 236 0.0 0.0 0.00 0.00 0.00 88 1014.3
20260905064205 75 236 0.0 0.0 0.00 0.00 0.00 88 1014.3
20260905064007 75 236 0.0 0.0 0.00 0.00 0.00 88 1014.4
20260905063805 75 236 0.0 0.0 0.00 0.00 0.00 88 1014.4
20260905063605 75 236 0.0 0.0 0.00 0.00 0.00 88 1014.4
20260905063406 75 236 0.0 0.0 0.00 0.00 0.00 88 1014.5
20260905063205 75 236 0.0 0.0 0.00 0.00 0.00 88 1014.5
20260905062805 75 236 0.0 0.0 0.00 0.00 0.00 88 1014.5
20260905062605 75 236 0.0 0.0 0.00 0.00 0.00 88 1014.6
20260905062406 75 236 0.0 0.0 0.00 0.00 0.00 88 1014.6
20260905062205 75 236 0.0 0.0 0.00 0.00 0.00 88 1014.7
20260905062007 75 236 0.0 0.0 0.00 0.00 0.00 88 1014.6
20260905061806 75 236 0.0 0.0 0.00 0.00 0.00 88 1014.6
20260905061604 75 236 0.0 0.0 0.00 0.00 0.00 88 1014.7
20260905061406 75 236 0.0 0.0 0.00 0.00 0.00 88 1014.7
20260905061205 75 236 0.0 0.0 0.00 0.00 0.00 88 1014.7
20260905061007 75 236 0.0 0.0 0.00 0.00 0.00 88 1014.7
20260905060805 75 236 0.0 0.0 0.00 0.00 0.00 89 1014.7
20260905060605 75 236 0.0 0.0 0.00 0.00 0.00 89 1014.8
20260905060406 75 236 0.0 0.0 0.00 0.00 0.00 88 1014.8
20260905060205 75 236 0.0 0.0 0.00 0.00 0.00 88 1014.9
20260905060009 75 236 0.0 1.0 0.00 0.00 0.00 88 1015.0
20260905055805 75 236 0.0 1.0 0.00 0.00 0.00 88 1014.9
20260905055406 75 236 0.0 1.0 0.00 0.00 0.00 87 1015.0
20260905055205 75 236 0.0 1.0 0.00 0.00 0.00 88 1015.1
20260905054806 76 236 0.0 0.0 0.00 0.00 0.00 87 1015.1
20260905054605 76 236 0.0 0.0 0.00 0.00 0.00 87 1015.0
20260905054007 76 236 0.0 2.0 0.00 0.00 0.00 88 1014.9
20260905053805 76 236 0.0 2.0 0.00 0.00 0.00 88 1014.9
20260905053605 76 236 0.0 2.0 0.00 0.00 0.00 88 1014.8
20260905053406 76 236 0.0 2.0 0.00 0.00 0.00 88 1014.9
20260905053205 76 236 0.0 0.0 0.00 0.00 0.00 87 1014.9
20260905053007 76 236 0.0 0.0 0.00 0.00 0.00 87 1014.8
20260905052805 76 236 0.0 0.0 0.00 0.00 0.00 87 1014.8
20260905052605 76 236 0.0 0.0 0.00 0.00 0.00 87 1014.8
20260905052406 76 236 0.0 0.0 0.00 0.00 0.00 87 1014.8
20260905052205 76 236 0.0 0.0 0.00 0.00 0.00 87 1014.8
20260905052007 76 236 0.0 0.0 0.00 0.00 0.00 87 1014.8
20260905051806 76 236 0.0 0.0 0.00 0.00 0.00 86 1014.8
20260905051605 76 236 0.0 0.0 0.00 0.00 0.00 87 1014.8
20260905051406 76 236 0.0 0.0 0.00 0.00 0.00 87 1014.8
20260905051205 76 236 0.0 0.0 0.00 0.00 0.00 86 1014.9
20260905050805 76 236 0.0 0.0 0.00 0.00 0.00 86 1015.0
20260905050605 76 236 0.0 0.0 0.00 0.00 0.00 86 1015.0
20260905050406 76 236 0.0 0.0 0.00 0.00 0.00 86 1014.9
20260905050205 76 236 0.0 0.0 0.00 0.00 0.00 86 1014.9
20260905045805 76 236 0.0 0.0 0.00 0.00 0.00 86 1014.9
20260905045605 76 236 0.0 0.0 0.00 0.00 0.00 86 1015.0
20260905045406 76 236 0.0 0.0 0.00 0.00 0.00 86 1014.9
20260905045007 76 236 0.0 0.0 0.00 0.00 0.00 86 1014.8
20260905044605 77 236 0.0 0.0 0.00 0.00 0.00 86 1014.9
20260905044205 77 236 0.0 0.0 0.00 0.00 0.00 85 1015.1
20260905044007 77 236 0.0 0.0 0.00 0.00 0.00 85 1015.1
20260905043805 77 236 0.0 0.0 0.00 0.00 0.00 85 1015.0
20260905043406 77 236 0.0 0.0 0.00 0.00 0.00 85 1014.9
20260905043205 77 236 0.0 0.0 0.00 0.00 0.00 85 1014.9
20260905043007 77 236 0.0 0.0 0.00 0.00 0.00 85 1014.9
20260905042805 77 236 0.0 0.0 0.00 0.00 0.00 85 1014.8
20260905042607 77 236 0.0 0.0 0.00 0.00 0.00 85 1014.9
20260905042406 77 236 0.0 0.0 0.00 0.00 0.00 85 1014.8
20260905042205 77 236 0.0 0.0 0.00 0.00 0.00 85 1014.8
20260905042007 77 236 0.0 0.0 0.00 0.00 0.00 85 1014.9
20260905041805 77 236 0.0 0.0 0.00 0.00 0.00 85 1014.9
20260905041405 77 236 0.0 0.0 0.00 0.00 0.00 85 1015.0
20260905041206 77 236 0.0 0.0 0.00 0.00 0.00 85 1015.0
20260905041006 77 236 0.0 0.0 0.00 0.00 0.00 85 1014.9
20260905040805 77 236 0.0 0.0 0.00 0.00 0.00 85 1015.0
20260905040608 77 236 0.0 0.0 0.00 0.00 0.00 85 1015.1
20260905040015 78 236 0.0 0.0 0.00 0.00 0.00 85 1015.1
20260905035807 78 236 0.0 0.0 0.00 0.00 0.00 85 1015.1
20260905035607 78 236 0.0 0.0 0.00 0.00 0.00 85 1015.1
20260905035207 78 236 0.0 0.0 0.00 0.00 0.00 84 1015.2
20260905035009 78 236 0.0 0.0 0.00 0.00 0.00 85 1015.2
20260905034808 78 236 0.0 0.0 0.00 0.00 0.00 85 1015.3
20260905034207 78 236 0.0 0.0 0.00 0.00 0.00 84 1015.4
20260905034011 78 236 0.0 0.0 0.00 0.00 0.00 84 1015.5
20260905033807 78 236 0.0 0.0 0.00 0.00 0.00 84 1015.5
20260905033607 78 236 0.0 0.0 0.00 0.00 0.00 84 1015.5
20260905033409 78 236 0.0 0.0 0.00 0.00 0.00 83 1015.5
20260905033208 78 236 0.0 0.0 0.00 0.00 0.00 83 1015.6
20260905033009 78 236 0.0 0.0 0.00 0.00 0.00 83 1015.6
20260905032807 78 236 0.0 0.0 0.00 0.00 0.00 83 1015.6
20260905032607 78 236 0.0 0.0 0.00 0.00 0.00 83 1015.5
20260905032408 78 236 0.0 0.0 0.00 0.00 0.00 83 1015.5
20260905032207 78 236 0.0 0.0 0.00 0.00 0.00 83 1015.5
20260905032009 78 236 0.0 0.0 0.00 0.00 0.00 83 1015.5
20260905031808 79 236 0.0 0.0 0.00 0.00 0.00 83 1015.4
20260905031607 79 236 0.0 0.0 0.00 0.00 0.00 82 1015.4
20260905031409 79 236 0.0 0.0 0.00 0.00 0.00 83 1015.5
20260905031207 79 236 0.0 0.0 0.00 0.00 0.00 83 1015.5
20260905030807 79 236 0.0 0.0 0.00 0.00 0.00 82 1015.5
20260905030607 79 236 0.0 0.0 0.00 0.00 0.00 82 1015.5
20260905030409 79 236 0.0 0.0 0.00 0.00 0.00 82 1015.6
20260905030207 79 236 0.0 0.0 0.00 0.00 0.00 82 1015.5
20260905030012 79 236 0.0 0.0 0.00 0.00 0.00 82 1015.5
20260905025807 79 236 0.0 0.0 0.00 0.00 0.00 82 1015.5
20260905025607 79 236 0.0 0.0 0.00 0.00 0.00 82 1015.5
20260905025409 79 236 0.0 0.0 0.00 0.00 0.00 82 1015.5
20260905025009 79 236 0.0 0.0 0.00 0.00 0.00 83 1015.6
20260905024807 79 236 0.0 0.0 0.00 0.00 0.00 82 1015.7
20260905024609 80 236 0.0 0.0 0.00 0.00 0.00 82 1015.7
20260905024409 80 236 0.0 0.0 0.00 0.00 0.00 82 1015.7
20260905024010 80 236 0.0 0.0 0.00 0.00 0.00 82 1015.8
20260905023607 80 236 0.0 0.0 0.00 0.00 0.00 82 1015.6
20260905023409 80 236 0.0 0.0 0.00 0.00 0.00 82 1015.7
20260905023207 80 236 0.0 0.0 0.00 0.00 0.00 82 1015.7
20260905023009 80 236 0.0 0.0 0.00 0.00 0.00 83 1015.6
20260905022807 80 236 0.0 0.0 0.00 0.00 0.00 83 1015.7
20260905022607 80 236 0.0 0.0 0.00 0.00 0.00 83 1015.7
20260905022410 80 236 0.0 0.0 0.00 0.00 0.00 83 1015.8
20260905022208 81 236 0.0 0.0 0.00 0.00 0.00 81 1015.8
20260905022010 81 236 0.0 0.0 0.00 0.00 0.00 80 1015.7
20260905021807 81 236 0.0 0.0 0.00 0.00 0.00 80 1015.7
20260905021608 81 236 0.0 0.0 0.00 0.00 0.00 80 1015.7
20260905021409 81 236 0.0 0.0 0.00 0.00 0.00 80 1015.6
20260905021209 81 236 0.0 0.0 0.00 0.00 0.00 80 1015.8
20260905021010 81 236 0.0 0.0 0.00 0.00 0.00 81 1015.7
20260905020808 81 236 0.0 0.0 0.00 0.00 0.00 80 1015.7
20260905020409 81 236 0.0 0.0 0.00 0.00 0.00 79 1015.7
20260905020207 81 236 0.0 0.0 0.00 0.00 0.00 79 1015.7
20260905015807 81 236 0.0 0.0 0.00 0.00 0.00 79 1015.7
20260905015209 82 236 0.0 0.0 0.00 0.00 0.00 78 1015.7
20260905015010 82 236 0.0 0.0 0.00 0.00 0.00 78 1015.7
20260905014409 82 236 0.0 0.0 0.00 0.00 0.00 78 1015.7
20260905014207 82 236 0.0 0.0 0.00 0.00 0.00 78 1015.6
20260905014010 82 236 0.0 0.0 0.00 0.00 0.00 78 1015.5
20260905013809 82 236 0.0 0.0 0.00 0.00 0.00 78 1015.5
20260905013607 82 236 0.0 0.0 0.00 0.00 0.00 77 1015.7
20260905013407 82 236 0.0 0.0 0.00 0.00 0.00 77 1015.6
20260905013207 83 236 0.0 0.0 0.00 0.00 0.00 77 1015.6
20260905013010 83 236 0.0 0.0 0.00 0.00 0.00 77 1015.6
20260905012807 83 236 0.0 0.0 0.00 0.00 0.00 77 1015.6
20260905012607 83 236 0.0 0.0 0.00 0.00 0.00 77 1015.6
20260905012407 83 236 0.0 0.0 0.00 0.00 0.00 76 1015.6
20260905012207 83 236 0.0 0.0 0.00 0.00 0.00 76 1015.6
20260905011807 83 236 0.0 0.0 0.00 0.00 0.00 76 1015.6
20260905011607 83 236 0.0 0.0 0.00 0.00 0.00 76 1015.6
20260905011407 84 236 0.0 0.0 0.00 0.00 0.00 76 1015.6
20260905011207 84 236 0.0 0.0 0.00 0.00 0.00 76 1015.6
20260905010807 84 236 0.0 0.0 0.00 0.00 0.00 75 1015.6
20260905010607 84 236 0.0 0.0 0.00 0.00 0.00 75 1015.5
20260905010407 84 236 0.0 0.0 0.00 0.00 0.00 75 1015.6
20260905010207 84 236 0.0 0.0 0.00 0.00 0.00 75 1015.6
20260905010010 84 236 0.0 0.0 0.00 0.00 0.00 75 1015.6
20260905005809 84 236 0.0 0.0 0.00 0.00 0.00 74 1015.5
20260905005607 84 236 0.0 0.0 0.00 0.00 0.00 74 1015.5
20260905005409 85 236 0.0 0.0 0.00 0.00 0.00 75 1015.5
20260905005208 85 236 0.0 0.0 0.00 0.00 0.00 74 1015.5
20260905005009 85 236 0.0 0.0 0.00 0.00 0.00 74 1015.4
20260905004808 85 236 0.0 0.0 0.00 0.00 0.00 74 1015.4
20260905004607 85 236 0.0 0.0 0.00 0.00 0.00 73 1015.4
20260905004409 85 236 0.0 0.0 0.00 0.00 0.00 74 1015.3
20260905004009 85 236 0.0 0.0 0.00 0.00 0.00 73 1015.4
20260905003807 85 236 0.0 0.0 0.00 0.00 0.00 73 1015.4
20260905003607 86 236 0.0 0.0 0.00 0.00 0.00 73 1015.4
20260905003409 86 236 0.0 0.0 0.00 0.00 0.00 72 1015.4
20260905003207 86 236 0.0 0.0 0.00 0.00 0.00 72 1015.3
20260905003013 86 236 0.0 0.0 0.00 0.00 0.00 72 1015.3
20260905002807 86 236 0.0 0.0 0.00 0.00 0.00 72 1015.2
20260905002607 86 236 0.0 0.0 0.00 0.00 0.00 72 1015.2
20260905002410 86 236 0.0 0.0 0.00 0.00 0.00 71 1015.2
20260905002207 86 236 0.0 0.0 0.00 0.00 0.00 71 1015.2
20260905002009 86 236 0.0 0.0 0.00 0.00 0.00 70 1015.2
20260905001807 87 236 0.0 0.0 0.00 0.00 0.00 70 1015.0
20260905001607 87 236 0.0 0.0 0.00 0.00 0.00 70 1015.0
20260905001409 87 236 0.0 0.0 0.00 0.00 0.00 70 1015.0
20260905001207 87 236 0.0 0.0 0.00 0.00 0.00 69 1014.9
20260905001009 87 236 0.0 0.0 0.00 0.00 0.00 69 1014.9
20260905000810 87 236 0.0 0.0 0.00 0.00 0.00 69 1014.9
20260905000609 87 236 0.0 0.0 0.00 0.00 0.00 69 1014.9
20260905000207 88 236 0.0 0.0 0.00 0.00 0.00 68 1014.9
20260905000012 88 236 0.0 0.0 0.00 0.00 0.00 69 1014.9
20260904235807 88 236 0.0 0.0 0.00 0.00 0.00 68 1014.9
20260904235609 88 236 0.0 0.0 0.00 0.00 0.00 68 1014.9
20260904235409 88 236 0.0 0.0 0.00 0.00 0.00 69 1015.0
20260904235207 89 236 0.0 0.0 0.00 0.00 0.00 69 1014.9
20260904235010 89 236 0.0 0.0 0.00 0.00 0.00 68 1014.8
20260904234807 89 236 0.0 0.0 0.00 0.00 0.00 67 1014.8
20260904234607 89 236 0.0 0.0 0.00 0.00 0.00 67 1014.8
20260904234407 89 236 0.0 0.0 0.00 0.00 0.00 66 1014.7
20260904234207 89 236 0.0 0.0 0.00 0.00 0.00 66 1014.9
20260904234009 89 236 0.0 0.0 0.00 0.00 0.00 66 1014.9
20260904233407 90 236 0.0 0.0 0.00 0.00 0.00 65 1014.7
20260904233207 90 236 0.0 0.0 0.00 0.00 0.00 65 1014.7
20260904232807 90 236 0.0 0.0 0.00 0.00 0.00 64 1014.8
20260904232608 91 236 0.0 0.0 0.00 0.00 0.00 64 1014.8
20260904232407 91 236 0.0 0.0 0.00 0.00 0.00 64 1014.7
20260904232209 91 236 0.0 0.0 0.00 0.00 0.00 64 1014.7
20260904232007 91 236 0.0 0.0 0.00 0.00 0.00 63 1014.7
20260904231807 91 236 0.0 0.0 0.00 0.00 0.00 63 1014.7
20260904231608 91 236 0.0 0.0 0.00 0.00 0.00 63 1014.7
20260904231407 91 236 0.0 0.0 0.00 0.00 0.00 63 1014.7
20260904231007 92 236 0.0 0.0 0.00 0.00 0.00 63 1014.7
20260904230807 92 236 0.0 0.0 0.00 0.00 0.00 62 1014.7
20260904230607 92 236 0.0 0.0 0.00 0.00 0.00 62 1014.6
20260904230407 92 236 0.0 0.0 0.00 0.00 0.00 62 1014.7
20260904230210 92 236 0.0 0.0 0.00 0.00 0.00 61 1014.6
20260904225807 92 236 0.0 0.0 0.00 0.00 0.00 61 1014.6
20260904225607 92 236 0.0 0.0 0.00 0.00 0.00 61 1014.5
20260904225407 93 236 0.0 0.0 0.00 0.00 0.00 60 1014.6
20260904225210 93 236 0.0 0.0 0.00 0.00 0.00 60 1014.6
20260904225007 93 236 0.0 0.0 0.00 0.00 0.00 60 1014.5
20260904224607 93 236 0.0 2.0 0.00 0.00 0.00 59 1014.6
20260904224407 93 236 0.0 2.0 0.00 0.00 0.00 59 1014.5
20260904224007 93 236 0.0 2.0 0.00 0.00 0.00 59 1014.5
20260904223807 93 236 0.0 2.0 0.00 0.00 0.00 58 1014.4
20260904223607 93 236 0.0 1.0 0.00 0.00 0.00 58 1014.4
20260904223407 93 236 0.0 0.0 0.00 0.00 0.00 57 1014.5
20260904223209 93 236 0.0 0.0 0.00 0.00 0.00 57 1014.5
20260904223007 93 236 0.0 1.0 0.00 0.00 0.00 58 1014.5
20260904222607 93 236 0.0 1.0 0.00 0.00 0.00 56 1014.5
20260904222407 93 236 0.0 1.0 0.00 0.00 0.00 56 1014.5
20260904222207 93 236 0.0 1.0 0.00 0.00 0.00 56 1014.5
20260904222007 93 232 0.0 1.0 0.00 0.00 0.00 56 1014.5
20260904221808 93 223 0.0 1.0 0.00 0.00 0.00 58 1014.6
20260904221607 94 223 0.0 1.0 0.00 0.00 0.00 57 1014.6
20260904221410 94 223 0.0 1.0 0.00 0.00 0.00 56 1014.6
20260904221007 94 223 1.0 3.0 0.00 0.00 0.00 57 1014.7
20260904220607 94 223 1.0 3.0 0.00 0.00 0.00 57 1014.6
20260904220410 94 220 0.0 3.0 0.00 0.00 0.00 58 1014.6
20260904220207 94 19 0.0 2.0 0.00 0.00 0.00 57 1014.6
20260904220010 94 19 0.0 2.0 0.00 0.00 0.00 56 1014.5
20260904215806 94 33 0.0 2.0 0.00 0.00 0.00 58 1014.6
20260904215608 94 53 0.0 1.0 0.00 0.00 0.00 57 1014.6
20260904215407 94 53 0.0 1.0 0.00 0.00 0.00 58 1014.6
20260904214808 94 53 0.0 0.0 0.00 0.00 0.00 56 1014.7
20260904214606 94 53 0.0 0.0 0.00 0.00 0.00 56 1014.7
20260904214408 94 53 0.0 0.0 0.00 0.00 0.00 55 1014.7
20260904214009 95 53 0.0 2.0 0.00 0.00 0.00 54 1014.6
20260904213806 95 53 1.0 2.0 0.00 0.00 0.00 53 1014.6
20260904213606 95 53 1.0 2.0 0.00 0.00 0.00 53 1014.6
20260904213408 95 53 1.0 2.0 0.00 0.00 0.00 54 1014.7
20260904213009 95 239 1.0 2.0 0.00 0.00 0.00 52 1014.7
20260904212806 96 221 1.0 3.0 0.00 0.00 0.00 52 1014.7
20260904212606 96 221 2.0 3.0 0.00 0.00 0.00 53 1014.7
20260904212406 96 241 2.0 4.0 0.00 0.00 0.00 53 1014.7
20260904212206 96 217 2.0 4.0 0.00 0.00 0.00 53 1014.6
20260904212008 96 213 1.0 4.0 0.00 0.00 0.00 53 1014.6
20260904211806 96 227 1.0 4.0 0.00 0.00 0.00 52 1014.7
20260904211406 96 287 1.0 4.0 0.00 0.00 0.00 51 1014.6
20260904211206 96 287 1.0 4.0 0.00 0.00 0.00 51 1014.7
20260904211006 97 216 2.0 4.0 0.00 0.00 0.00 50 1014.6
20260904210609 97 128 1.0 4.0 0.00 0.00 0.00 51 1014.7
20260904210406 97 270 1.0 4.0 0.00 0.00 0.00 51 1014.7
20260904210206 97 292 1.0 4.0 0.00 0.00 0.00 50 1014.6
20260904210008 97 273 1.0 4.0 0.00 0.00 0.00 49 1014.7
20260904205806 98 205 1.0 3.0 0.00 0.00 0.00 48 1014.7
20260904205609 98 205 1.0 3.0 0.00 0.00 0.00 49 1014.8
20260904205406 98 228 1.0 3.0 0.00 0.00 0.00 50 1014.7
20260904205006 98 234 1.0 3.0 0.00 0.00 0.00 50 1014.8
20260904204807 98 224 1.0 3.0 0.00 0.00 0.00 49 1014.8
20260904204406 98 201 1.0 3.0 0.00 0.00 0.00 50 1014.8
20260904204006 98 205 1.0 2.0 0.00 0.00 0.00 49 1014.7
20260904203806 98 281 2.0 4.0 0.00 0.00 0.00 49 1014.7
20260904203606 98 167 2.0 4.0 0.00 0.00 0.00 50 1014.9
20260904203406 98 277 2.0 4.0 0.00 0.00 0.00 49 1014.9
20260904203207 98 279 2.0 4.0 0.00 0.00 0.00 49 1014.9
20260904203007 98 211 1.0 4.0 0.00 0.00 0.00 51 1015.0
20260904202808 98 151 1.0 4.0 0.00 0.00 0.00 51 1015.0
20260904202406 98 200 1.0 4.0 0.00 0.00 0.00 50 1015.1
20260904201606 98 280 2.0 5.0 0.00 0.00 0.00 50 1015.2
20260904201208 98 213 2.0 5.0 0.00 0.00 0.00 53 1015.2
20260904200809 98 212 2.0 5.0 0.00 0.00 0.00 52 1015.3
20260904200606 98 216 2.0 4.0 0.00 0.00 0.00 50 1015.3
20260904200406 98 278 1.0 4.0 0.00 0.00 0.00 49 1015.4
20260904200206 99 9 2.0 4.0 0.00 0.00 0.00 49 1015.3
20260904195809 99 252 1.0 4.0 0.00 0.00 0.00 48 1015.4
20260904195606 99 217 1.0 4.0 0.00 0.00 0.00 49 1015.4
20260904195406 99 215 1.0 4.0 0.00 0.00 0.00 49 1015.5
20260904195206 99 213 1.0 4.0 0.00 0.00 0.00 49 1015.5
20260904195006 99 187 1.0 4.0 0.00 0.00 0.00 49 1015.5
20260904194809 100 169 1.0 4.0 0.00 0.00 0.00 47 1015.5
20260904194606 100 169 1.0 4.0 0.00 0.00 0.00 47 1015.5
20260904194406 100 211 1.0 4.0 0.00 0.00 0.00 49 1015.6
20260904194206 100 195 1.0 3.0 0.00 0.00 0.00 49 1015.7
20260904194006 100 213 1.0 3.0 0.00 0.00 0.00 49 1015.7
20260904193809 101 163 1.0 4.0 0.00 0.00 0.00 48 1015.7
20260904193607 101 168 1.0 4.0 0.00 0.00 0.00 49 1015.7
20260904193406 101 128 1.0 4.0 0.00 0.00 0.00 49 1015.8
20260904193006 101 257 2.0 4.0 0.00 0.00 0.00 49 1015.9
20260904192406 100 140 2.0 5.0 0.00 0.00 0.00 51 1016.0
20260904192206 100 225 2.0 5.0 0.00 0.00 0.00 49 1016.0
20260904192006 100 150 2.0 5.0 0.00 0.00 0.00 48 1015.9
20260904191809 101 229 2.0 5.0 0.00 0.00 0.00 48 1016.0
20260904191606 101 250 2.0 4.0 0.00 0.00 0.00 47 1016.1
20260904191406 101 194 2.0 4.0 0.00 0.00 0.00 47 1016.1
20260904191206 101 223 2.0 4.0 0.00 0.00 0.00 48 1016.1
20260904191006 101 147 2.0 4.0 0.00 0.00 0.00 48 1016.1
20260904190809 101 65 2.0 4.0 0.00 0.00 0.00 48 1016.3
20260904190606 101 200 1.0 4.0 0.00 0.00 0.00 50 1016.3
20260904190206 100 191 1.0 3.0 0.00 0.00 0.00 49 1016.4
20260904190008 101 315 1.0 3.0 0.00 0.00 0.00 48 1016.4
20260904185808 101 215 2.0 5.0 0.00 0.00 0.00 48 1016.4
20260904185606 101 130 2.0 8.0 0.00 0.00 0.00 50 1016.4
20260904185206 100 207 3.0 8.0 0.00 0.00 0.00 49 1016.4
20260904185006 100 201 2.0 8.0 0.00 0.00 0.00 50 1016.4
20260904184807 100 212 2.0 5.0 0.00 0.00 0.00 51 1016.4
20260904184606 100 134 2.0 5.0 0.00 0.00 0.00 51 1016.4
20260904184406 99 169 1.0 6.0 0.00 0.00 0.00 51 1016.4
20260904184206 99 134 1.0 6.0 0.00 0.00 0.00 50 1016.4
20260904183807 99 195 1.0 3.0 0.00 0.00 0.00 51 1016.4
20260904183406 99 260 2.0 5.0 0.00 0.00 0.00 50 1016.4
20260904183206 99 347 2.0 5.0 0.00 0.00 0.00 51 1016.5
20260904183006 99 128 2.0 5.0 0.00 0.00 0.00 50 1016.4
20260904182608 99 236 2.0 5.0 0.00 0.00 0.00 51 1016.5
20260904182406 99 232 2.0 5.0 0.00 0.00 0.00 50 1016.7
20260904182206 99 227 2.0 5.0 0.00 0.00 0.00 52 1016.7
20260904182006 99 211 2.0 5.0 0.00 0.00 0.00 51 1016.7
20260904181808 99 213 2.0 5.0 0.00 0.00 0.00 51 1016.7
20260904181606 99 227 2.0 5.0 0.00 0.00 0.00 49 1016.8
20260904181408 100 206 2.0 5.0 0.00 0.00 0.00 51 1016.8
20260904181206 100 197 2.0 5.0 0.00 0.00 0.00 51 1016.8
20260904181006 99 130 2.0 5.0 0.00 0.00 0.00 51 1016.8
20260904180606 99 281 2.0 5.0 0.00 0.00 0.00 51 1016.9
20260904180406 99 205 2.0 5.0 0.00 0.00 0.00 52 1016.8
20260904180206 99 223 2.0 4.0 0.00 0.00 0.00 50 1016.9
20260904180008 99 159 2.0 6.0 0.00 0.00 0.00 52 1016.9
20260904175807 99 181 2.0 6.0 0.00 0.00 0.00 52 1017.0
20260904175606 99 194 2.0 6.0 0.00 0.00 0.00 52 1016.9
20260904175406 99 197 2.0 6.0 0.00 0.00 0.00 51 1016.9
20260904175006 98 200 2.0 4.0 0.00 0.00 0.00 54 1017.0
20260904174809 98 134 2.0 5.0 0.00 0.00 0.00 55 1017.0
20260904174606 98 261 2.0 5.0 0.00 0.00 0.00 55 1017.1
20260904174407 98 227 2.0 7.0 0.00 0.00 0.00 54 1017.1
20260904174206 98 205 2.0 7.0 0.00 0.00 0.00 55 1017.1
20260904174007 97 159 2.0 7.0 0.00 0.00 0.00 55 1017.2
20260904173607 97 213 2.0 5.0 0.00 0.00 0.00 55 1017.3
20260904173406 97 321 2.0 5.0 0.00 0.00 0.00 56 1017.2
20260904173206 97 169 2.0 4.0 0.00 0.00 0.00 56 1017.2
20260904172808 97 182 2.0 4.0 0.00 0.00 0.00 58 1017.3
20260904172606 96 211 1.0 4.0 0.00 0.00 0.00 57 1017.3
20260904172206 96 35 1.0 4.0 0.00 0.00 0.00 56 1017.4
20260904172006 96 242 1.0 4.0 0.00 0.00 0.00 58 1017.3
20260904171809 96 339 1.0 4.0 0.00 0.00 0.00 56 1017.3
20260904171606 96 184 2.0 5.0 0.00 0.00 0.00 57 1017.4
20260904171406 96 81 2.0 4.0 0.00 0.00 0.00 57 1017.4
20260904171206 96 174 2.0 4.0 0.00 0.00 0.00 59 1017.4
20260904170807 96 209 2.0 4.0 0.00 0.00 0.00 59 1017.4
20260904170406 96 198 2.0 4.0 0.00 0.00 0.00 57 1017.4
20260904170206 96 205 2.0 4.0 0.00 0.00 0.00 59 1017.4
20260904170008 96 228 2.0 4.0 0.00 0.00 0.00 59 1017.4
20260904165809 96 253 2.0 4.0 0.00 0.00 0.00 59 1017.5
20260904165606 96 182 2.0 4.0 0.00 0.00 0.00 58 1017.5
20260904165406 96 272 1.0 4.0 0.00 0.00 0.00 59 1017.6
20260904165206 96 276 2.0 7.0 0.00 0.00 0.00 60 1017.6
20260904165007 95 209 2.0 7.0 0.00 0.00 0.00 61 1017.6
20260904164809 95 234 2.0 7.0 0.00 0.00 0.00 60 1017.6
20260904164606 95 197 2.0 7.0 0.00 0.00 0.00 60 1017.6
20260904164406 95 191 2.0 7.0 0.00 0.00 0.00 61 1017.6
20260904164206 95 207 2.0 7.0 0.00 0.00 0.00 62 1017.7
20260904164006 95 198 2.0 7.0 0.00 0.00 0.00 62 1017.7
20260904163809 94 178 2.0 7.0 0.00 0.00 0.00 61 1017.7
20260904163606 94 222 2.0 7.0 0.00 0.00 0.00 61 1017.8
20260904163406 94 290 1.0 7.0 0.00 0.00 0.00 62 1017.8
20260904163006 94 206 1.0 4.0 0.00 0.00 0.00 64 1017.9
20260904162808 94 175 1.0 4.0 0.00 0.00 0.00 65 1017.8
20260904162607 94 236 1.0 3.0 0.00 0.00 0.00 63 1017.8
20260904162206 94 106 1.0 3.0 0.00 0.00 0.00 63 1017.9
20260904161808 93 267 1.0 3.0 0.00 0.00 0.00 64 1018.0
20260904161606 93 188 1.0 3.0 0.00 0.00 0.00 64 1018.0
20260904161406 93 36 1.0 5.0 0.00 0.00 0.00 65 1018.0
20260904161208 93 105 1.0 5.0 0.00 0.00 0.00 64 1018.0
20260904161006 93 206 1.0 5.0 0.00 0.00 0.00 65 1018.0
20260904160808 92 225 1.0 5.0 0.00 0.00 0.00 66 1018.1
20260904160606 92 218 1.0 5.0 0.00 0.00 0.00 67 1018.0
20260904160406 92 213 1.0 3.0 0.00 0.00 0.00 67 1018.1
20260904155806 91 205 1.0 3.0 0.00 0.00 0.00 66 1018.1
20260904155606 91 227 1.0 3.0 0.00 0.00 0.00 67 1018.0
20260904155407 91 340 1.0 3.0 0.00 0.00 0.00 66 1018.1
20260904155209 91 182 1.0 3.0 0.00 0.00 0.00 65 1018.1
20260904155006 90 184 1.0 3.0 0.00 0.00 0.00 67 1018.2